Torna al catalogo

CZ-6A DEB

AttivoPO
NORAD 61074·DEBRIS·🇨🇳 China

Lanciato Aug 6, 2024 da Taiyuan Satellite Launch Center

Loading…

Prossimi Passaggi (prossime 24 ore)

TLE

AggiornatoSource: Space-Track

Epoca: Sep 14, 2026, 17:15 UTC

1 61074U 24140MQ  26257.71919758  .00001630  00000-0  31694-3 0  9994
2 61074  88.9859 258.3513 0123712 315.6770  43.4585 14.57884715109604

Traccia CZ-6A DEB in tempo reale con AllMySat

Download on the App Store